TimePST,TemperatureF,Dew PointF,Humidity,Sea Level PressureIn,VisibilityMPH,Wind Direction,Wind SpeedMPH,Gust SpeedMPH,PrecipitationIn,Events,Conditions,WindDirDegrees,DateUTC
12:53 AM,39.9,39.9,100,30.15,5.0,ENE,4.6,-,N/A,,Clear,70,2013-11-09 08:53:00
1:41 AM,39.2,39.2,100,30.14,2.5,ENE,8.1,-,N/A,,Partly Cloudy,70,2013-11-09 09:41:00
1:45 AM,39.2,39.2,100,30.14,1.0,ENE,6.9,-,N/A,,Mist,70,2013-11-09 09:45:00
1:53 AM,39.9,39.0,97,30.15,0.5,ENE,8.1,-,N/A,Fog,Fog,70,2013-11-09 09:53:00
2:10 AM,39.2,39.2,100,30.13,0.2,ENE,8.1,-,N/A,Fog,Fog,70,2013-11-09 10:10:00
2:53 AM,39.0,39.0,100,30.14,0.2,ENE,9.2,-,N/A,Fog,Fog,70,2013-11-09 10:53:00
3:26 AM,39.2,39.2,100,30.12,0.2,ENE,4.6,-,N/A,Fog,Fog,60,2013-11-09 11:26:00
3:33 AM,39.2,39.2,100,30.12,0.5,ENE,4.6,-,N/A,Fog,Fog,60,2013-11-09 11:33:00
3:53 AM,39.9,39.9,100,30.12,1.5,ENE,4.6,-,N/A,,Overcast,60,2013-11-09 11:53:00
4:00 AM,39.2,39.2,100,30.11,3.0,ENE,4.6,-,N/A,,Mostly Cloudy,60,2013-11-09 12:00:00
4:07 AM,39.2,39.2,100,30.11,1.8,ENE,6.9,-,N/A,,Mostly Cloudy,70,2013-11-09 12:07:00
4:27 AM,39.2,39.2,100,30.11,0.8,ENE,8.1,-,N/A,,Mist,70,2013-11-09 12:27:00
4:39 AM,39.2,39.2,100,30.11,0.8,ENE,8.1,-,N/A,,Mist,70,2013-11-09 12:39:00
4:49 AM,39.2,39.2,100,30.11,0.5,ENE,9.2,-,N/A,Fog,Fog,70,2013-11-09 12:49:00
4:53 AM,39.9,39.9,100,30.12,0.5,ENE,9.2,-,N/A,Fog,Fog,70,2013-11-09 12:53:00
5:53 AM,41.0,41.0,100,30.11,0.8,ENE,6.9,-,0.01,,Mist,70,2013-11-09 13:53:00
6:03 AM,41.0,41.0,100,30.10,1.2,East,8.1,-,N/A,,Overcast,80,2013-11-09 14:03:00
6:40 AM,41.0,41.0,100,30.10,0.8,ENE,5.8,-,N/A,,Overcast,70,2013-11-09 14:40:00
6:53 AM,41.0,41.0,100,30.11,0.8,ENE,8.1,-,N/A,,Overcast,70,2013-11-09 14:53:00
7:08 AM,41.0,41.0,100,30.09,1.0,ENE,6.9,-,N/A,,Overcast,70,2013-11-09 15:08:00
7:30 AM,41.0,41.0,100,30.09,0.8,ENE,6.9,-,N/A,,Overcast,70,2013-11-09 15:30:00
7:53 AM,41.0,41.0,100,30.11,0.5,ENE,5.8,-,N/A,Fog,Fog,70,2013-11-09 15:53:00
8:15 AM,41.0,41.0,100,30.09,1.5,East,5.8,-,N/A,,Overcast,80,2013-11-09 16:15:00
8:45 AM,42.8,42.8,100,30.09,2.5,ENE,5.8,-,N/A,,Overcast,70,2013-11-09 16:45:00
8:53 AM,42.1,42.1,100,30.10,4.0,East,8.1,-,N/A,,Overcast,80,2013-11-09 16:53:00
9:53 AM,43.0,42.1,97,30.12,5.0,East,10.4,-,N/A,,Mostly Cloudy,80,2013-11-09 17:53:00
10:42 AM,44.6,42.8,93,30.10,4.0,ENE,6.9,-,N/A,,Overcast,70,2013-11-09 18:42:00
10:53 AM,45.0,44.1,97,30.11,5.0,ENE,6.9,-,N/A,,Mostly Cloudy,70,2013-11-09 18:53:00
11:53 AM,46.9,45.0,93,30.09,6.0,East,8.1,-,N/A,,Scattered Clouds,80,2013-11-09 19:53:00
12:53 PM,46.9,45.0,93,30.08,5.0,ENE,8.1,-,N/A,,Overcast,70,2013-11-09 20:53:00
1:53 PM,46.9,44.1,90,30.08,6.0,ENE,8.1,-,N/A,,Overcast,70,2013-11-09 21:53:00
2:53 PM,48.0,44.1,86,30.09,6.0,ENE,6.9,-,0.00,,Overcast,70,2013-11-09 22:53:00
3:53 PM,48.0,44.1,86,30.08,7.0,ENE,5.8,-,N/A,,Overcast,60,2013-11-09 23:53:00
4:53 PM,46.9,44.1,90,30.08,9.0,NE,5.8,-,N/A,,Overcast,50,2013-11-10 00:53:00
5:53 PM,46.9,44.1,90,30.08,8.0,NE,8.1,-,N/A,,Overcast,50,2013-11-10 01:53:00
6:53 PM,46.9,43.0,86,30.09,9.0,NE,9.2,-,N/A,,Overcast,50,2013-11-10 02:53:00
7:53 PM,46.0,44.1,93,30.09,7.0,ENE,4.6,-,N/A,,Overcast,60,2013-11-10 03:53:00
8:53 PM,46.9,44.1,90,30.10,8.0,ENE,8.1,-,N/A,,Overcast,60,2013-11-10 04:53:00
9:53 PM,46.9,44.1,90,30.09,7.0,NE,9.2,-,0.01,,Overcast,50,2013-11-10 05:53:00
10:53 PM,46.9,44.1,90,30.09,8.0,NE,9.2,-,N/A,,Overcast,50,2013-11-10 06:53:00
11:53 PM,46.9,44.1,90,30.10,8.0,NE,9.2,-,N/A,,Overcast,40,2013-11-10 07:53:00